Regional Weather Roundup
Issued by NWS

Home | Current Version | Previous Version | Graphics & Text | Print | Product List | Glossary On
Versions: 1 2 3 4 5 6 7 8 9 10 11 12 13 14 15 16 17 18 19 20 21 22 23 24 25 26 27 28 29 30 31 32 33 34 35 36 37 38 39 40 41 42 43 44 45 46 47 48 49 50
000
ASUS43 KDMX 260701
RWRIA

WEATHER ROUNDUP FOR IOWA
NATIONAL WEATHER SERVICE DES MOINES IA
200 AM CDT SUN MAR 26 2017

NOTE: "FAIR" INDICATES FEW OR NO CLOUDS BELOW 12,000 FEET WITH NO
SIGNIFICANT WEATHER AND/OR OBSTRUCTIONS TO VISIBILITY.

* - THESE STATIONS ARE NOT NWS STATIONS...THUS NOT UNDER NWS
QUALITY CONTROL.  THEY ALSO DO NOT REPORT WEATHER SUCH
AS PRECIPITATION OR FOG.

IAZ001>003-012>014-020>022-031>034-043>046-260800-
   NORTHWEST IOWA

CITY           SKY/WX    TMP DP  RH WIND       PRES   REMARKS
CARROLL *      CLOUDY    39  39 100 NE9       29.88F FOG     WCI  33
CHEROKEE *     CLOUDY    37  37 100 N5        29.92S FOG     WCI  34
LE MARS *      CLOUDY    37  37 100 NE6       29.94F FOG     WCI  33
ORANGE CITY *  CLOUDY    37  37 100 CALM      29.93F FOG
SHELDON *      CLOUDY    37  37 100 NE6       29.92S FOG     WCI  33
SIOUX CITY     CLOUDY    39  38  96 N7        29.93F WCI  34
SPENCER        CLOUDY    37  37 100 NE9       29.92F FOG     WCI  30
STORM LAKE *   FOG       37  37 100 NE9       29.90F VSB 1   WCI  31
$$

IAZ055>058-069>071-079>083-090>094-260800-
   SOUTHWEST IOWA

CITY           SKY/WX    TMP DP  RH WIND       PRES   REMARKS
ATLANTIC *     CLOUDY    39  39 100 N6        29.87F WCI  35
AUDUBON *      CLOUDY    39  37  93 N9        29.88F FOG     WCI  33
CLARINDA *     CLOUDY    43  41  93 N5        29.90S
COUNCIL BLFS * CLOUDY    39  39 100 N8        29.88F WCI  34
CRESTON *      FOG       39  39 100 N9        29.86F VSB 1   WCI  33
HARLAN  *      CLOUDY    39  39 100 N7        29.92S FOG     WCI  34
LAMONI         CLOUDY    42  42 100 N8        29.83F FOG
RED OAK *      CLOUDY    41  41 100 N5        29.88F FOG
SHENANDOAH *   CLOUDY    41  41 100 CALM      29.89F FOG
$$

IAZ047>049-059>061-072>074-084-260800-
   CENTRAL IOWA

CITY           SKY/WX    TMP DP  RH WIND       PRES   REMARKS
AMES           CLOUDY    40  40 100 NE8       29.87F FOG     WCI  34
ANKENY *       CLOUDY    41  39  93 N10       29.87F FOG
BOONE *        FOG       39  39 100 N12       29.86F VSB 1/2 WCI  32
CHARITON *     LGT RAIN  43  43 100 N10       29.83F
DES MOINES     DRIZZLE   42  40  92 NE9       29.86F FOG
GRINNELL*      CLOUDY    40  40  99 N10       29.85F FOG     WCI  34
MARSHALLTOWN   CLOUDY    40  40 100 NE10      29.86F FOG     WCI  33
NEWTON *       CLOUDY    41  41 100 N10       29.84F FOG
PELLA *        CLOUDY    42  42  99 N6        29.86S FOG
PERRY *        FOG       40  39  97 N9        29.88F VSB 1   WCI  34
$$

IAZ004>006-015-016-023>025-035-036-260800-
   NORTH CENTRAL IOWA

CITY           SKY/WX    TMP DP  RH WIND       PRES   REMARKS
ALGONA *       CLOUDY    37  37 100 NE8       29.91F FOG     WCI  31
CLARION *      FOG       37  37 100 NE12      29.90F VSB 3/4 WCI  30
ESTHERVILLE    CLOUDY    36  36 100 NE9       29.92F FOG     WCI  29
FORT DODGE *   CLOUDY    37  36  93 NE6       29.90F WCI  33
MASON CITY     FOG       37  36  96 NE8       29.92F VSB 3/4 WCI  31
FOREST CITY *  CLOUDY    36  36 100 NE6       29.91F FOG     WCI  31
WEBSTER CITY * FOG       39  37  93 N10       29.87F VSB 3/4 WCI  32
IOWA FALLS *   DRIZZLE   39  38  97 NE9       29.89F WCI  33
$$

IAZ007>011-017>019-026>030-037>042-050>054-066-260800-
   NORTHEAST IOWA

CITY           SKY/WX    TMP DP  RH WIND       PRES   REMARKS
CEDAR RAPIDS   FOG       42  32  67 NE12      29.84F VSB 1/2
CHARLES CITY * CLOUDY    37  37 100 NE10G17   29.90F FOG     WCI  30
CLINTON *      CLOUDY    45  44  97 NE13      29.85F FOG
DECORAH *      LGT RAIN  37  37 100 NE8G16    29.91F WCI  31
DUBUQUE        FOG       40  40 100 NE14      29.87F VSB 1/4 WCI  32
MONTICELLO *   CLOUDY    43  41  93 N7        29.87S FOG
OELWEIN *      CLOUDY    39  39 100 NE13G18   29.89F WCI  32
WATERLOO       CLOUDY    39  38  96 NE7       29.89F FOG     WCI  34
$$

IAZ064-065-067-068-078-260800-
   EAST CENTRAL IOWA

CITY           SKY/WX    TMP DP  RH WIND       PRES   REMARKS
DAVENPORT      CLOUDY    46  45  96 E13       29.84F FOG
IOWA CITY      CLOUDY    45  44  97 NE9       29.84F FOG
MUSCATINE *    LGT RAIN  46  46 100 NE5       29.83S VSB 1
QUAD CITIES    CLOUDY    48  46  93 NE8       29.83F FOG
$$

IAZ062-063-075>077-085>089-095>099-260800-
   SOUTHEAST IOWA

CITY           SKY/WX    TMP DP  RH WIND       PRES   REMARKS
BURLINGTON     MOCLDY    56  54  93 SE7       29.78F
FAIRFIELD *    CLOUDY    46  46 100 NE12      29.79F FOG
FORT MADISON * CLOUDY    55  55 100 SE6       29.79S
KEOKUK *       CLOUDY    55  54  94 SE7       29.77F
OSKALOOSA *    LGT RAIN  44  43  98 N12       29.82F
OTTUMWA        LGT RAIN  45  45 100 N10       29.82S FOG
WASHINGTON *   FOG       45  45 100 NE13      29.82F VSB 1/4
$$

ABBREVIATIONS USED IN REMARKS
   TC - TEMPERATURES IN CELSIUS
  WCI - WIND CHILL INDEX
   HX - HEAT INDEX
  VSB - VISIBILITY
$$





USA.gov is the U.S. government's official web portal to all federal, state and local government web resources and services.